sat.trackr.live / text

‹ back to catalog

STARLINK-11332 [DTC]

NORAD 61539 · 2024-184H

PAYLOAD ACTIVE UNKNOWN

§ Identity

Operator
Country
US
Launch date
2024-10-15
Launch site
AFWTR
Launch vehicle
Mass (kg)
RCS (m²)

Purposes: comms

External: N2YO · Heavens-Above · Gunter

§ Orbital elements

Epoch: 2026-09-21T16:15:14.684256Z

Period
91.74 min
Inclination
53.1589°
Eccentricity
0.0001068
Mean motion
15.69717743 rev/d
Perigee alt
359.0 km
Apogee alt
360.4 km
Semi-major
6,737.8 km
B*
2.1817e-5
RAAN
349.8260°
Arg perigee
80.0985°
Mean anomaly
280.0153°
Rev number
11,120

§ Raw data

STARLINK-11332 [DTC]1 61539U 24184H   26264.67725329  .00002056  00000+0  21817-4 0  99992 61539  53.1589 349.8260 0001068  80.0985 280.0153 15.69717743111208

JSON: /api/v1/satellites/61539 · /tle

For live sub-satellite position, see the globe view (requires WebGL).

§ Visibility from observer

Set your observer location to see the next 7 days of passes ≥ 10°. The values pass through the URL so the page stays shareable.

No JS? Fill the form by hand. The geolocation button needs JavaScript.